Wind_Speed
4 4 3 3 3 3 3 3 3 2 2 1 1 1 1 1 2 2 2 3 3 3 3 4 5 6 6 6 7 7 8 8 8 8 8 9 9 10 10 11 11 11 12
5 5 4 3 3 3 3 3 3 3 2 3 3 3 3 2 2 3 2 2 2 3 3 4 5 6 7 7 7 8 7 8 8 8 9 9 10 10 11 11 12 12 12
7 7 6 5 5 4 4 4 4 4 4 3 4 5 4 4 4 4 4 4 5 5 5 5 6 7 7 7 8 9 9 10 10 10 10 10 11 12 11 11 11 12 12
7 7 8 7 6 5 6 6 6 6 6 5 5 6 6 6 6 5 5 6 7 7 7 8 7 7 8 8 9 10 10 11 11 11 11 11 11 11 11 12 12 12 12
8 8 8 9 8 8 8 8 8 8 8 7 7 7 7 8 8 8 8 8 9 10 10 10 10 9 9 10 10 10 11 11 12 12 12 12 12 12 13 13 13 13 13
8 8 9 9 9 10 10 10 10 10 10 9 9 9 10 9 10 10 11 11 11 11 11 11 12 12 11 12 12 12 12 12 12 12 12 12 13 14 14 13 13 13 13
8 8 8 9 9 10 10 11 11 11 11 11 11 11 11 11 11 12 13 12 12 12 12 12 13 13 13 13 13 13 13 13 13 13 14 13 13 14 13 13 13 13 13
10 10 10 10 10 10 10 11 11 11 12 12 12 12 12 13 13 13 13 13 13 14 14 14 14 14 14 14 15 15 14 14 14 15 15 14 15 15 15 15 14 14 14
12 12 12 11 11 11 11 12 12 12 13 13 13 14 14 14 14 14 13 14 14 15 16 16 16 16 16 16 16 16 16 16 15 15 16 16 16 16 17 16 16 15 14
13 13 13 13 13 13 13 13 13 14 14 15 15 15 16 16 15 15 15 16 16 17 17 17 17 17 17 17 17 17 16 16 16 16 17 17 17 17 17 16 15 15 14
14 15 16 15 15 15 15 15 15 15 16 17 17 17 17 16 16 17 18 18 19 18 18 18 18 18 19 19 18 18 17 17 17 17 17 17 17 17 17 17 16 17 16
15 17 17 17 17 17 17 17 18 18 18 18 18 18 18 18 18 19 19 20 20 20 20 19 19 19 20 19 19 19 19 18 18 18 18 18 18 18 18 18 18 18 18
16 18 18 19 19 19 19 19 19 20 20 21 21 20 20 20 20 20 20 21 21 21 21 21 21 21 21 21 21 21 20 20 20 20 19 19 19 19 20 19 19 19 20
19 19 20 21 21 21 20 20 21 22 22 22 22 22 22 21 21 21 21 21 21 21 21 22 22 22 22 23 22 22 22 21 21 21 21 20 20 21 21 21 21 21 21
21 20 21 22 22 22 22 22 22 22 22 23 23 23 23 23 23 23 23 23 22 22 22 22 23 23 23 22 23 23 23 23 22 22 22 22 22 22 22 23 23 23 23
22 22 23 23 23 24 24 25 25 25 24 24 24 25 24 24 24 24 24 24 24 24 23 24 24 24 24 23 22 22 23 23 23 22 23 23 23 23 23 24 24 24 24
24 25 25 25 24 25 25 26 27 26 26 26 26 26 26 25 25 25 25 26 25 25 25 25 25 24 24 24 23 23 23 24 24 24 23 24 23 24 25 25 25 26 26
26 27 27 26 26 26 26 27 28 28 28 28 28 27 27 27 27 26 26 27 27 27 27 26 26 25 24 24 24 25 24 25 25 26 25 25 25 25 25 26 27 27 27
26 27 28 28 28 29 29 29 29 29 29 29 30 29 29 29 29 29 28 28 28 28 28 27 26 25 24 24 24 25 25 26 26 27 27 27 26 26 27 28 28 28 28
27 27 28 29 29 30 30 30 30 30 30 30 30 30 30 30 31 31 30 30 30 29 29 28 27 26 25 25 25 26 26 26 26 27 27 27 27 28 28 28 29 29 29
27 27 28 28 29 30 30 30 31 31 31 31 31 30 31 31 31 32 32 31 31 30 30 29 29 28 27 27 27 27 27 28 28 28 28 28 28 29 29 29 29 30 29
28 28 29 29 29 30 30 30 30 31 31 31 31 31 31 31 32 33 33 32 32 31 31 30 29 28 28 28 28 29 29 29 29 29 29 29 29 29 29 29 29 29 29
29 29 29 29 30 30 30 30 30 30 30 31 31 31 32 32 32 33 33 32 32 32 31 31 30 30 30 30 30 30 30 30 30 30 29 30 30 30 30 30 30 30 30
28 29 29 30 30 30 30 31 32 32 31 31 31 32 32 32 32 32 32 33 33 33 32 32 31 31 32 32 31 31 30 31 31 30 30 30 30 30 30 31 31 31 32
28 28 29 30 30 30 31 32 32 32 32 32 32 33 33 33 32 32 33 34 34 33 33 33 33 33 32 32 32 32 31 31 31 31 31 31 31 31 31 31 31 31 31
28 28 29 29 29 29 30 31 32 33 33 33 33 33 33 34 34 33 33 34 34 33 33 33 33 33 33 32 32 32 32 32 32 32 32 32 32 32 32 31 31 31 32
Wind_Direction
336 335 340 342 341 346 355 15 18 24 24 346 344 326 270 236 232 254 258 268 272 274 279 281 282 280 279 283 287 284 286 286 288 284 281 283 287 288 289 290 289 287 287
312 312 309 312 317 322 323 332 338 340 347 346 344 336 307 281 273 282 282 284 287 293 295 287 285 285 284 283 287 288 287 287 287 287 287 289 289 290 289 287 286 287 289
301 298 301 305 303 300 299 300 305 305 308 315 320 324 322 304 289 285 280 279 281 286 292 290 287 289 289 289 287 287 288 288 288 286 289 291 290 293 293 292 291 289 288
298 295 296 300 297 290 293 293 294 293 290 292 302 309 312 312 304 293 288 285 286 285 292 288 288 289 288 288 289 288 286 287 288 288 287 289 291 290 292 291 291 291 286
291 290 290 294 294 290 289 290 287 285 287 287 293 296 299 302 301 298 296 289 284 286 289 286 284 289 290 288 287 289 287 287 287 290 291 290 290 289 288 287 287 288 286
288 285 286 289 292 292 289 288 286 284 286 285 290 291 291 292 293 294 296 299 294 288 288 285 287 287 289 289 287 285 285 285 286 288 290 291 291 293 290 283 282 282 286
286 283 284 284 286 289 289 287 284 283 282 284 285 286 289 291 293 294 293 295 296 298 299 296 295 291 289 291 290 289 286 284 284 286 286 288 290 293 293 286 281 282 287
283 280 278 280 279 281 283 283 282 282 284 285 284 287 290 293 297 293 292 292 292 293 294 295 294 293 292 291 292 292 290 288 286 284 285 286 287 289 291 288 282 282 284
284 282 280 278 277 277 280 281 282 283 285 287 287 286 290 293 293 290 290 292 290 289 290 291 291 290 293 291 291 292 290 289 287 284 283 283 283 284 286 287 284 282 281
284 282 281 279 277 277 278 279 279 280 282 284 285 286 287 289 290 287 289 289 288 287 287 289 288 287 289 294 295 296 291 287 286 286 285 283 282 283 284 287 284 283 283
284 283 283 282 280 279 278 279 279 280 282 284 284 284 286 287 287 286 287 289 288 286 286 287 286 286 288 291 293 294 293 287 285 286 286 287 284 284 283 284 283 283 283
280 280 280 280 280 278 279 280 280 280 282 284 284 283 284 286 285 285 284 288 286 287 286 286 285 286 287 287 289 290 290 284 282 283 284 283 283 282 282 281 282 282 282
279 280 279 279 278 278 278 278 279 282 282 282 282 282 282 283 284 285 286 287 287 287 287 285 285 286 286 285 286 287 286 282 280 281 281 280 279 278 278 279 280 281 282
276 277 278 279 279 279 277 278 281 282 280 279 280 281 280 281 282 284 286 287 286 286 286 285 285 285 285 283 284 283 282 281 278 279 278 278 279 279 279 279 280 280 281
274 274 275 277 278 278 277 279 279 280 279 278 279 280 280 281 282 283 285 286 287 287 288 286 285 285 285 284 283 281 280 280 280 279 279 280 280 281 281 280 281 281 281
272 273 274 275 275 276 276 277 278 277 279 281 281 281 282 281 282 282 282 283 285 286 286 285 284 283 284 285 285 283 281 280 280 282 280 279 280 281 280 280 281 281 281
271 272 274 275 276 277 277 278 278 278 279 280 281 281 281 281 281 280 281 282 283 284 283 283 283 283 283 284 283 282 280 279 280 281 281 279 279 280 280 280 280 282 282
270 270 272 274 276 278 278 279 278 278 277 277 279 278 280 281 281 281 282 282 282 282 282 282 282 282 281 282 281 279 281 281 280 280 279 278 277 278 281 280 281 281 281
270 271 273 276 277 278 278 278 279 280 280 280 279 279 278 279 280 281 282 283 283 282 282 281 281 281 281 281 280 279 280 281 281 280 279 278 277 278 279 280 281 281 281
272 273 273 275 276 277 278 278 280 280 280 280 280 279 279 278 279 280 280 282 283 284 284 281 278 278 280 281 282 281 281 281 282 281 280 280 278 277 278 279 280 280 281
273 274 274 275 276 276 277 278 280 280 280 280 280 280 279 278 279 280 281 282 283 283 283 281 278 277 278 280 282 283 283 282 281 281 280 280 279 278 278 279 279 279 280
273 275 275 276 277 277 277 278 278 278 279 280 280 281 280 279 279 280 280 280 281 282 281 279 278 277 278 280 281 281 282 282 280 280 280 280 281 280 279 279 279 279 279
275 275 276 277 277 278 277 276 278 278 280 280 279 280 282 282 281 281 280 278 278 279 279 277 277 276 278 279 280 280 280 280 280 279 279 281 281 281 280 280 280 279 279
275 276 277 278 279 279 278 277 277 278 280 280 280 280 282 284 283 281 280 278 277 277 278 276 276 277 278 279 279 279 278 277 277 277 278 279 280 281 281 281 281 281 280
276 277 278 278 279 279 279 278 279 279 280 281 281 281 282 283 283 281 280 279 278 276 276 276 276 276 277 278 278 279 280 279 277 277 278 280 281 282 283 282 281 280 280
277 278 279 279 280 280 281 281 281 280 281 282 282 283 283 283 282 281 280 280 279 277 278 277 277 275 275 277 278 278 279 279 278 278 279 279 281 283 284 284 282 281 280
Height
5905 5904 5903 5902 5901 5900 5899 5898 5897 5896 5895 5894 5893 5893 5892 5891 5891 5890 5889 5889 5888 5888 5887 5887 5886 5886 5885 5884 5883 5883 5882 5881 5880 5880 5879 5878 5877 5876 5875 5874 5873 5872 5871
5905 5904 5903 5902 5901 5900 5899 5898 5897 5896 5895 5894 5894 5893 5892 5891 5890 5890 5889 5888 5888 5887 5886 5886 5885 5884 5884 5883 5882 5881 5880 5880 5879 5878 5877 5877 5876 5874 5873 5872 5871 5870 5868
5905 5903 5902 5901 5900 5899 5898 5898 5897 5896 5895 5894 5893 5892 5892 5890 5890 5889 5888 5887 5887 5886 5885 5885 5884 5883 5882 5881 5881 5880 5879 5878 5877 5876 5875 5874 5873 5872 5871 5869 5868 5867 5866
5904 5903 5901 5900 5899 5899 5898 5897 5896 5895 5894 5894 5893 5892 5891 5890 5889 5888 5887 5886 5885 5884 5884 5883 5882 5881 5880 5880 5879 5878 5877 5876 5875 5874 5873 5872 5871 5870 5868 5867 5866 5864 5863
5902 5901 5900 5899 5898 5897 5896 5895 5894 5894 5893 5892 5892 5891 5890 5889 5888 5886 5885 5884 5883 5883 5882 5881 5881 5880 5878 5877 5876 5875 5874 5873 5872 5871 5870 5869 5868 5867 5866 5865 5863 5862 5861
5900 5899 5898 5897 5896 5895 5894 5894 5893 5892 5891 5890 5890 5889 5888 5887 5886 5885 5884 5882 5881 5880 5879 5878 5878 5877 5876 5875 5874 5873 5871 5870 5869 5869 5868 5866 5865 5864 5862 5861 5860 5859 5858
5898 5897 5896 5896 5895 5894 5893 5892 5891 5890 5889 5888 5887 5886 5886 5885 5884 5883 5881 5880 5879 5878 5877 5876 5875 5874 5873 5872 5871 5870 5868 5867 5866 5865 5864 5863 5862 5861 5860 5858 5857 5856 5855
5895 5895 5894 5893 5892 5891 5891 5890 5889 5888 5887 5886 5885 5884 5883 5882 5881 5880 5879 5877 5876 5875 5874 5873 5872 5871 5870 5869 5867 5866 5865 5864 5863 5862 5861 5860 5859 5857 5856 5855 5854 5853 5852
5892 5891 5891 5890 5889 5889 5888 5887 5886 5886 5885 5884 5883 5881 5880 5879 5878 5877 5875 5874 5873 5872 5871 5870 5868 5867 5866 5865 5864 5863 5862 5860 5859 5858 5857 5856 5855 5854 5853 5851 5850 5849 5848
5889 5888 5887 5887 5886 5885 5885 5884 5883 5882 5881 5880 5879 5878 5877 5876 5874 5873 5872 5871 5870 5869 5867 5866 5864 5864 5863 5861 5859 5858 5857 5856 5855 5854 5853 5851 5850 5850 5849 5847 5846 5845 5845
5885 5885 5884 5883 5882 5882 5881 5880 5879 5878 5877 5876 5875 5874 5873 5872 5871 5869 5868 5867 5865 5864 5863 5861 5860 5859 5858 5857 5856 5854 5853 5852 5851 5849 5848 5847 5846 5845 5844 5843 5842 5841 5840
5882 5881 5880 5879 5878 5877 5877 5876 5875 5874 5873 5872 5871 5870 5869 5868 5866 5865 5863 5862 5860 5859 5858 5856 5855 5854 5853 5852 5851 5849 5848 5847 5846 5845 5844 5842 5841 5841 5840 5839 5838 5837 5835
5878 5877 5876 5875 5874 5873 5872 5871 5870 5870 5869 5868 5867 5865 5864 5863 5861 5860 5858 5857 5855 5854 5853 5851 5850 5849 5847 5846 5845 5844 5842 5841 5840 5839 5838 5837 5836 5835 5834 5833 5832 5831 5830
5873 5872 5871 5869 5869 5868 5867 5866 5865 5864 5863 5862 5861 5860 5859 5857 5856 5855 5853 5851 5850 5849 5847 5846 5844 5843 5841 5840 5839 5837 5836 5835 5834 5833 5832 5831 5830 5830 5829 5828 5827 5826 5825
5867 5866 5865 5865 5864 5863 5862 5861 5860 5859 5858 5857 5856 5854 5853 5852 5850 5849 5847 5846 5844 5843 5841 5839 5838 5836 5835 5833 5832 5831 5829 5829 5828 5827 5826 5825 5824 5823 5823 5822 5821 5820 5819
5861 5860 5860 5859 5858 5857 5856 5855 5854 5853 5852 5851 5849 5848 5847 5845 5844 5842 5841 5839 5838 5836 5835 5833 5831 5830 5828 5827 5825 5824 5823 5822 5821 5821 5820 5819 5818 5817 5816 5815 5815 5813 5812
5855 5854 5853 5852 5852 5850 5850 5849 5847 5846 5845 5844 5843 5841 5840 5839 5837 5836 5835 5833 5831 5830 5828 5826 5824 5823 5821 5820 5818 5817 5816 5815 5814 5814 5813 5812 5811 5810 5809 5808 5808 5807 5805
5848 5848 5847 5846 5845 5843 5842 5841 5840 5839 5838 5836 5835 5834 5833 5831 5830 5829 5827 5826 5824 5823 5821 5818 5817 5815 5814 5813 5811 5810 5809 5808 5807 5806 5805 5805 5804 5802 5801 5801 5800 5799 5798
5841 5840 5839 5838 5837 5836 5835 5834 5832 5831 5830 5828 5827 5826 5825 5824 5823 5821 5819 5818 5816 5815 5813 5811 5809 5807 5806 5805 5804 5803 5801 5800 5799 5798 5798 5797 5796 5796 5794 5793 5792 5791 5790
5833 5832 5831 5830 5829 5828 5827 5825 5824 5822 5821 5819 5818 5817 5816 5815 5814 5812 5811 5809 5808 5806 5805 5803 5801 5800 5799 5798 5796 5795 5794 5793 5792 5790 5790 5789 5788 5787 5786 5785 5784 5783 5782
5825 5824 5823 5822 5821 5820 5818 5817 5815 5813 5811 5810 5809 5808 5806 5805 5804 5803 5801 5800 5799 5797 5796 5794 5793 5792 5791 5790 5789 5787 5786 5785 5783 5782 5781 5780 5779 5778 5778 5776 5776 5774 5773
5817 5816 5815 5814 5812 5811 5809 5808 5806 5804 5802 5801 5799 5798 5797 5795 5794 5793 5792 5791 5789 5788 5787 5786 5784 5783 5782 5781 5780 5778 5777 5776 5775 5774 5773 5772 5771 5770 5769 5768 5767 5765 5764
5808 5807 5806 5805 5804 5802 5800 5799 5797 5796 5794 5792 5791 5789 5787 5786 5784 5783 5782 5781 5780 5779 5777 5776 5775 5774 5773 5772 5770 5769 5768 5767 5766 5765 5764 5763 5762 5761 5760 5759 5757 5756 5755
5800 5799 5797 5796 5794 5793 5791 5790 5788 5787 5785 5783 5781 5780 5778 5776 5774 5773 5772 5771 5770 5769 5768 5766 5765 5764 5763 5762 5760 5759 5758 5757 5756 5755 5754 5753 5752 5751 5750 5749 5747 5746 5745
5791 5790 5788 5787 5785 5783 5782 5780 5779 5777 5776 5774 5772 5770 5769 5767 5765 5764 5762 5761 5760 5759 5758 5756 5755 5754 5753 5752 5751 5749 5749 5747 5746 5745 5744 5743 5742 5741 5740 5739 5737 5736 5735
5782 5781 5779 5778 5776 5774 5773 5771 5769 5768 5766 5764 5762 5761 5759 5757 5755 5754 5752 5751 5750 5748 5747 5745 5744 5743 5742 5741 5741 5740 5739 5738 5737 5735 5734 5733 5732 5731 5730 5728 5727 5726 5725